Etusivu
METAR-TAF:

METAR-TAF

Lentoasemat :

Big Spring McMahon-Wrinkle Airport

Big Spring, Texas, Yhdysvallat

Leveyspiiri: 32-12N, Pituuspiiri: 101-31W, korkeus merenpinnasta: 784 m

Tämänhetkinen sää

Tämä raportti tehtiin 18 minuuttia sitten, kello 00.15 UTC
Tuuli 17 kn etelästä/kaakosta puuskistuen 20 kn:hen
Lämpötila 36°C
Kosteus 24%
Ilmanpaine 1013 hPa
Näkyvyys: 16.1 km
selkeää

METAR: KBPG 070015Z AUTO 16017G20KT 10SM CLR 36/12 A2991 RMK AO2 LTG DSNT NW T03600118

Aika: 19:33 (00:33 UTC)


TAF: puuttuu

Säähavainnot ja -ennusteet yli 4000 lentoasemalta (METAR- ja TAF-raportit).

Käytössä olevat sääasemat on merkitty karttaan keltaisilla ja punaisilla pisteillä.

Aseta hiiri pisteen päälle nähdäksesi sääaseman nimen.

Klikkaa sitten nähdäksesi säähavainnot ja -ennusteet.

Kartan vaihtaminen: klikkaa mustalla rastilla varustettuja vihreitä pisteitä, niin voit zoomata sisään; viivalla varustettua vihreää pistettä, niin voit zoomata ulos tai vihreitä nuolia, niin pääset viereisille kartoille.


METAR-TAF: